STARLINK-6094, 56122

Orbit data source: Space-Track

STARLINK-6094, 56122 is a payload satellite owned by SpaceX/Seattle (US) in LEO that was launched on Wed, 29 Mar 2023 UTC via an FALCON 9 launch vehicle from the Air Force Eastern Test Range (AFETR). Payload-class satellites include a variety of spacecraft equipped with specific instruments for various scientific and technological missions. These include communications satellites like Starlink; space stations such as the ISS; scientific satellites like the Hubble; Earth observation satellites from companies like Planet Labs, Umbra, and HawkEye 360; GPS; miniature CubeSats for education and research; and military/defense satellites.

Loading next visibility...
Identifier
56122, 2023-046AF
Orbit
LEO
Country
Flag of USUS
Related business
Manufacturer
SpaceX/Seattle
Mission
Operational Commercial Communications
Bus & Motor
STARLINK, Unknown motor
Mass
305 kg wet, ~290 kg dry
Launch date (UTC)
2023-03-29 (3 years ago)
Launch vehicle
FALCON 9
Launch site
Air Force Eastern Test Range (AFETR)
Object type
Payload
Rocket body
Debris
Shape & HBR
Box + 1 Pan, 10.1 m
Radar Cross Section
11.087 m², Large (>1 m²)

Expand to show TLE details & history
Last TLE update: 2 days ago

TLE from 2 days ago
0 STARLINK-6094
1 56122U 23046AF  26171.38001815 -.00000301  00000-0 -13948-5 0  9990
2 56122  43.0021 298.4532 0001827 274.7017  85.3626 15.27574930177779
Epoch: 2026-06-20T09:07Z
TLE epoch observation values (Epoch: 2026-06-20T09:07:13.568Z)
Latitude
-0°
Longitude
-106.94881°
Altitude
482.739 km
Speed
7.626 km/s
True Right ascension
19h 53m 48s
True Declination
0° 00' 00"
Sunlit
Object was in full shadow at epoch
Visualization orbit readout
Latitude
Unknown
Longitude
Unknown
Altitude
Unknown
Speed
Unknown
Apparent Right ascension
Unknown
Apparent Declination
Unknown
Sunlit
N/A
Visualization observer readout
Local Sidereal Time
21:49:07
Azimuth
Unknown
Elevation
Unknown
Doppler factor
Unknown
Orbital elements
Apogee altitude
486.263 km
Perigee altitude
483.755 km
Semi-major axis
6,863.146 km
Eccentricity
0.00018
Inclination
43.0021°
RAAN
298.4532°
Arg. of periapsis
274.7017°
True anomaly
85.38347°
Mean anomaly
85.3626°
Eccentric anomaly
85.37303°
Mean motion
3.81732 °/min
Orbital period
94.31 mins
BSTAR
-0.0000013948
Loading maneuver chart data...
Computing Atmospheric mass density...

Documentation

Showing up to 5 results
|